Regional Weather Roundup
Issued by NWS

Home | Current Version | Previous Version | Graphics & Text | Print | Product List | Glossary On
Versions: 1 2 3 4 5 6 7 8 9 10 11 12 13 14 15 16 17 18 19 20 21 22 23 24 25 26 27 28 29 30 31 32 33 34 35 36 37 38 39 40 41 42 43 44 45 46 47 48 49 50
000
ASUS43 KOAX 240202
RWRNE

WEATHER ROUNDUP FOR NEBRASKA
NATIONAL WEATHER SERVICE OMAHA NE
900 PM CDT TUE SEP 23 2014

NOTES: SATELLITE DATA IS BEING USED TO AUGMENT CLOUD COVER ABOVE
       12000 FEET.
       "FAIR" INDICATES FEW OR NO CLOUDS BELOW 12,000 FEET WITH NO
       SIGNIFICANT WEATHER AND/OR OBSTRUCTIONS TO VISIBILITY.

  * THESE STATIONS DO NOT REPORT WEATHER SUCH AS RAIN...SNOW OR FOG.

NEZ001>004-019>022-054>056-240300-
NEBRASKA PANHANDLE

CITY           SKY/WX    TMP DP  RH WIND       PRES   REMARKS
SCOTTSBLUFF    PTCLDY    68  48  48 S3        30.04R
ALLIANCE       MOCLDY    65  51  60 S7        30.03R
CHADRON        PTCLDY    62  53  72 CALM      29.98R
KIMBALL        PTCLDY    64  46  52 NW3       30.10R
SIDNEY         MOCLDY    66  48  52 N6        30.07R
$$

NEZ057>060-069>072-079>082-240300-
SOUTHWEST NEBRASKA

CITY           SKY/WX    TMP DP  RH WIND       PRES   REMARKS
NORTH PLATTE   PTCLDY    68  59  73 E9        29.98R
IMPERIAL       CLEAR     68  49  50 N7        30.00R
LEXINGTON      MOCLDY    67  60  77 E9        29.99R
MCCOOK         CLEAR     70  59  68 S5        29.96R
OGALLALA       PTCLDY    68  53  57 N5        30.00R
$$

NEZ005>010-023>029-035>040-094-240300-
NORTH CENTRAL NEBRASKA

CITY           SKY/WX    TMP DP  RH WIND       PRES   REMARKS
VALENTINE      CLEAR     63  60  90 CALM      29.95R
AINSWORTH      CLEAR     63  59  89 S9        29.96R
BROKEN BOW     LGT RAIN  64  60  87 SE7       30.00R
O`NEILL        CLOUDY    61  60  95 SE18G26   29.98S
ORD            LGT RAIN  62  58  86 SE10G18   30.00R
THEDFORD       PTCLDY    66  61  82 SE3       29.99R
$$

NEZ041-046>049-061>064-073>077-083>087-240300-
SOUTH CENTRAL NEBRASKA

CITY           SKY/WX    TMP DP  RH WIND       PRES   REMARKS
GRAND ISLAND   CLOUDY    62  57  83 SE10      30.03R
AURORA         MOCLDY    61  55  82 SE13      30.04R
HASTINGS       MOCLDY    62  55  77 SE10      30.01S
HEBRON         PTCLDY    63  55  75 SE13G20   30.05S
HOLDREGE       MOCLDY    64  58  81 SE12      29.99S
KEARNEY *      CLOUDY    63  57  82 E13       30.01S
$$

NEZ011>018-030>034-042>045-240300-
NORTHEAST NEBRASKA

CITY           SKY/WX    TMP DP  RH WIND       PRES   REMARKS
NORFOLK        CLOUDY    61  54  77 S15       30.06R
ALBION         LGT RAIN  61  56  84 S10       30.05R
BLAIR          CLOUDY    64  55  71 SE13G20   30.10R
COLUMBUS *     MOCLDY    61  52  72 SE8       30.08R
FREMONT        CLOUDY    63  55  73 SE13G18   30.08S
TEKAMAH        CLOUDY    64  55  72 SE12      30.08S
WAYNE          CLOUDY    60  54  79 S12       30.07R
$$

NEZ050>053-065>068-078-088>093-240300-
SOUTHEAST NEBRASKA

CITY           SKY/WX    TMP DP  RH WIND       PRES   REMARKS
LINCOLN        CLOUDY    64  55  72 S16G28    30.08R
OMAHA EPPLEY   CLOUDY    65  53  65 SE16      30.11R
BEATRICE       MOCLDY    63  57  81 SE16      30.08R
FALLS CITY     CLOUDY    61  59  93 SE8       30.12S
NEBRASKA CITY  CLOUDY    61  53  74 S10G17    30.12R
PLATTSMOUTH    CLOUDY    62  55  79 SE10G17   30.10F
$$

NEZ044-045-051>053-067-240300-
OMAHA AREA

CITY           SKY/WX    TMP DP  RH WIND       PRES   REMARKS
OMAHA EPPLEY   CLOUDY    65  53  65 SE16      30.11R
BLAIR          CLOUDY    64  55  71 SE13G20   30.10R
FREMONT        CLOUDY    63  55  73 SE13G18   30.08S
MILLARD        CLOUDY    64  57  77 SE12G18   30.10R
OFFUTT AFB     CLOUDY    63  58  83 E13       30.11R
PLATTSMOUTH    CLOUDY    62  55  79 SE10G17   30.10F
WAHOO          CLOUDY    62  54  74 SE12      30.09R
$$


USA.gov is the U.S. government's official web portal to all federal, state and local government web resources and services.